Torna al catalogo

STARLINK-37238

AttivoComunicazioniVLEO
NORAD 69247·PAYLOAD·🇺🇸 United States

Lanciato May 29, 2026 da Cape Canaveral Space Force Station

Loading…

Prossimi Passaggi (prossime 24 ore)

TLE

AggiornatoSource: CelesTrak SupGP

Epoca: Sep 14, 2026, 22:37 UTC

1 69247C 26117K   26257.94284722 -.00038004  00000+0 -11224-2 0  2570
2 69247  53.1571 179.6187 0001225  81.8175 342.1323 15.34422623    12

Traccia STARLINK-37238 in tempo reale con AllMySat

Download on the App Store